Morgantown, WV

1:54 AM EST on January 19, 2018 (GMT -0500)
Morgantown Municipal-Hart

Weather History for KMGW - December, 1999

Change the Weather History Date:

Friday, December 24, 1999

  Actual Average Record
Temperature  
Mean Temperature 20 °F 33 °F  
Max Temperature 23 °F 40 °F 71 °F (2015)
Min Temperature 17 °F 25 °F -11 °F (1983)
Degree Days  
Heating Degree Days 45 32  
Month to date heating degree days 707  
Since 1 July heating degree days 1755  
Cooling Degree Days 0 0  
Month to date cooling degree days 0  
Year to date cooling degree days 814  
Moisture  
Dew Point 15 °F    
Average Humidity 86    
Maximum Humidity 100    
Minimum Humidity 60    
Precipitation  
Precipitation 0.00 in 0.09 in 1.83 in (1879)
Month to date precipitation 2.31  
Year to date precipitation 41.23  
Sea Level Pressure  
Sea Level Pressure 30.27 in    
Wind  
Wind Speed 3 mph (NNW)    
Max Wind Speed 7 mph    
Max Gust Speed -    
Visibility 8 miles    
Events Snow    
T = Trace of Precipitation, MM = Missing Value Source: NWS Daily Summary

Daily Weather History Graph

Daily Weather History Graph

Search for Another Location

Airport or City:

Trip Planner

Search our weather history database for the weather conditions in past years. The results will help you decide how hot, cold, wet, or windy it might be!

Date:

Astronomy

Dec. 24, 1999 Rise Set
Actual Time 7:38 AM EST 5:00 PM EST
Civil Twilight 7:07 AM EST 5:30 PM EST
Nautical Twilight 6:33 AM EST 6:04 PM EST
Astronomical Twilight 6:01 AM EST 6:37 PM EST
Moon 7:29 PM EST (12/24) 9:19 AM EST (12/24)
Length of Visible Light 10h 22m
Length of Day
9h 22m
Waning Gibbous, 94% of the Moon is Illuminated
Dec 24
Waning Gibbous
Dec 29
Last Quarter
Jan 6
New
Jan 14
First Quarter
Jan 20
Full

Hourly Weather History & Observations

Time (EST) Temp. Windchill Dew Point Humidity Pressure Visibility Wind Dir Wind Speed Gust Speed Precip Events Conditions
12:53 AM 21.9 °F 13.4 °F 10.0 °F 60% 30.26 in 10.0 mi WNW 6.9 mph - N/A   Mostly Cloudy
1:53 AM 19.9 °F 12.1 °F 14.0 °F 78% 30.25 in 9.0 mi Variable 5.8 mph - 0.00 in Snow Light Snow
2:53 AM 19.0 °F - 15.1 °F 85% 30.24 in 9.0 mi Calm Calm - 0.00 in Snow Light Snow
3:53 AM 19.0 °F - 17.1 °F 92% 30.21 in 9.0 mi Calm Calm - 0.00 in Snow Light Snow
4:53 AM 18.0 °F - 17.1 °F 96% 30.18 in 9.0 mi Calm Calm - 0.00 in Snow Light Snow
5:53 AM 18.0 °F - 15.1 °F 88% 30.19 in 10.0 mi Calm Calm - 0.00 in   Mostly Cloudy
6:53 AM 17.1 °F - 16.0 °F 96% 30.20 in 10.0 mi Calm Calm - N/A   Overcast
7:53 AM 17.1 °F - 16.0 °F 96% 30.23 in 10.0 mi Calm Calm - N/A   Overcast
8:53 AM 18.0 °F - 16.0 °F 92% 30.25 in 2.0 mi Calm Calm - 0.00 in Snow Light Snow
9:04 AM 17.6 °F - 17.6 °F 100% 30.20 in 1.5 mi Calm Calm - 0.00 in Snow Light Snow
9:19 AM 19.4 °F 12.8 °F 17.6 °F 93% 30.20 in 1.5 mi NW 4.6 mph - 0.00 in Snow Light Snow
9:33 AM 17.6 °F 10.7 °F 17.6 °F 100% 30.21 in 2.0 mi NNW 4.6 mph - 0.00 in Snow Light Snow
9:43 AM 19.4 °F - 17.6 °F 93% 30.21 in 5.0 mi Calm Calm - 0.00 in   Overcast
9:53 AM 19.0 °F 13.9 °F 17.1 °F 92% 30.27 in 9.0 mi Variable 3.5 mph - 0.00 in   Overcast
10:34 AM 19.4 °F 14.3 °F 17.6 °F 93% 30.23 in 3.0 mi Variable 3.5 mph - 0.00 in Snow Light Snow
10:53 AM 19.0 °F - 16.0 °F 88% 30.28 in 9.0 mi Calm Calm - 0.00 in Snow Light Snow
11:53 AM 21.0 °F - 18.0 °F 88% 30.27 in 2.5 mi Calm Calm - 0.00 in Snow Light Snow
12:23 PM 19.4 °F 11.5 °F 17.6 °F 93% 30.21 in 1.5 mi North 5.8 mph - 0.00 in Snow Light Snow
12:36 PM 19.4 °F 12.8 °F 15.8 °F 86% 30.20 in 3.0 mi North 4.6 mph - 0.00 in Snow Light Snow
12:53 PM 19.9 °F 13.4 °F 16.0 °F 85% 30.26 in 6.0 mi NE 4.6 mph - 0.00 in Snow Light Snow
1:23 PM 21.2 °F - 15.8 °F 80% 30.20 in 6.0 mi Calm Calm - 0.00 in Snow Light Snow
1:53 PM 21.0 °F 16.2 °F 12.9 °F 71% 30.25 in 9.0 mi Variable 3.5 mph - 0.00 in   Mostly Cloudy
2:24 PM 21.2 °F 14.9 °F 14.0 °F 74% 30.19 in 10.0 mi NE 4.6 mph - N/A   Mostly Cloudy
2:53 PM 21.9 °F 17.2 °F 12.0 °F 66% 30.25 in 10.0 mi Variable 3.5 mph - N/A   Mostly Cloudy
3:53 PM 23.0 °F 18.4 °F 12.0 °F 63% 30.27 in 10.0 mi Variable 3.5 mph - N/A   Overcast
4:53 PM 21.9 °F 15.7 °F 12.9 °F 68% 30.30 in 10.0 mi North 4.6 mph - 0.00 in   Overcast
5:53 PM 19.9 °F 12.1 °F 14.0 °F 78% 30.33 in 10.0 mi NNW 5.8 mph - 0.00 in   Overcast
6:53 PM 19.9 °F 13.4 °F 14.0 °F 78% 30.35 in 10.0 mi NW 4.6 mph - N/A   Mostly Cloudy
7:53 PM 18.0 °F 11.1 °F 14.0 °F 84% 30.37 in 10.0 mi NW 4.6 mph - N/A   Clear
8:53 PM 18.0 °F 11.1 °F 15.1 °F 88% 30.40 in 10.0 mi NW 4.6 mph - 0.00 in Snow Light Snow
9:53 PM 18.0 °F 12.7 °F 17.1 °F 96% 30.41 in 10.0 mi Variable 3.5 mph - 0.00 in   Mostly Cloudy
10:16 PM 17.6 °F 10.7 °F 17.6 °F 100% 30.35 in 10.0 mi NW 4.6 mph - N/A   Overcast
10:53 PM 18.0 °F 11.1 °F 16.0 °F 92% 30.43 in 9.0 mi Variable 4.6 mph - 0.00 in   Overcast
11:53 PM 17.1 °F 11.7 °F 14.0 °F 88% 30.44 in 10.0 mi WNW 3.5 mph - 0.00 in Snow Light Snow